| time (UTC) | temp F | wind direction | speed MPH | gust MPH | rain 1hr in | rain 24hr in | rain mn in | humidity % | barometer mb |
| 20260510204017 | 78 | 360 | 24.0 | 32.0 | 0.00 | 0.00 | 0.00 | 1 | 924.7 |
| 20260510203516 | 77 | 360 | 18.0 | 26.0 | 0.00 | 0.00 | 0.00 | 1 | 924.9 |
| 20260510203055 | 77 | 360 | 17.0 | 31.0 | 0.00 | 0.00 | 0.00 | 1 | 924.9 |
| 20260510202520 | 78 | 360 | 20.0 | 31.0 | 0.00 | 0.00 | 0.00 | 1 | 924.8 |
| 20260510202014 | 77 | 360 | 22.0 | 29.0 | 0.00 | 0.00 | 0.00 | 1 | 924.8 |
| 20260510201604 | 77 | 360 | 17.0 | 27.0 | 0.00 | 0.00 | 0.00 | 1 | 925.0 |
| 20260510201020 | 77 | 360 | 19.0 | 26.0 | 0.00 | 0.00 | 0.00 | 1 | 925.0 |
| 20260510200519 | 77 | 360 | 19.0 | 25.0 | 0.00 | 0.00 | 0.00 | 1 | 925.0 |
| 20260510200055 | 76 | 360 | 17.0 | 25.0 | 0.00 | 0.00 | 0.00 | 3 | 925.2 |
| 20260510195517 | 76 | 360 | 14.0 | 21.0 | 0.00 | 0.00 | 0.00 | 3 | 925.2 |
| 20260510195016 | 77 | 360 | 12.0 | 19.0 | 0.00 | 0.00 | 0.00 | 2 | 925.2 |
| 20260510194551 | 76 | 360 | 12.0 | 19.0 | 0.00 | 0.00 | 0.00 | 4 | 925.3 |
| 20260510194015 | 76 | 360 | 15.0 | 27.0 | 0.00 | 0.00 | 0.00 | 2 | 925.4 |
| 20260510193522 | 77 | 360 | 18.0 | 27.0 | 0.00 | 0.00 | 0.00 | 3 | 925.4 |
| 20260510193053 | 77 | 360 | 13.0 | 21.0 | 0.00 | 0.00 | 0.00 | 4 | 925.6 |
| 20260510192517 | 76 | 360 | 12.0 | 21.0 | 0.00 | 0.00 | 0.00 | 7 | 925.6 |
| 20260510192021 | 76 | 360 | 16.0 | 21.0 | 0.00 | 0.00 | 0.00 | 8 | 925.6 |
| 20260510191556 | 75 | 360 | 6.0 | 18.0 | 0.00 | 0.00 | 0.00 | 9 | 925.7 |
| 20260510191016 | 75 | 360 | 11.0 | 18.0 | 0.00 | 0.00 | 0.00 | 9 | 925.8 |
| 20260510190521 | 74 | 360 | 11.0 | 16.0 | 0.00 | 0.00 | 0.00 | 9 | 925.8 |
| 20260510190054 | 74 | 360 | 7.0 | 16.0 | 0.00 | 0.00 | 0.00 | 9 | 925.8 |
| 20260510185516 | 74 | 360 | 13.0 | 17.0 | 0.00 | 0.00 | 0.00 | 10 | 925.8 |
| 20260510185019 | 74 | 360 | 9.0 | 17.0 | 0.00 | 0.00 | 0.00 | 11 | 925.9 |
| 20260510184548 | 73 | 360 | 5.0 | 19.0 | 0.00 | 0.00 | 0.00 | 11 | 925.9 |
| 20260510184019 | 74 | 360 | 7.0 | 19.0 | 0.00 | 0.00 | 0.00 | 11 | 926.1 |
| 20260510183515 | 73 | 360 | 6.0 | 18.0 | 0.00 | 0.00 | 0.00 | 12 | 926.0 |
| 20260510183051 | 72 | 360 | 7.0 | 18.0 | 0.00 | 0.00 | 0.00 | 12 | 926.1 |
| 20260510182518 | 73 | 360 | 11.0 | 16.0 | 0.00 | 0.00 | 0.00 | 12 | 925.9 |
| 20260510182016 | 72 | 360 | 10.0 | 16.0 | 0.00 | 0.00 | 0.00 | 12 | 926.0 |
| 20260510181551 | 72 | 360 | 2.0 | 13.0 | 0.00 | 0.00 | 0.00 | 13 | 926.0 |
| 20260510181018 | 72 | 360 | 7.0 | 17.0 | 0.00 | 0.00 | 0.00 | 13 | 926.0 |
| 20260510180521 | 72 | 360 | 12.0 | 17.0 | 0.00 | 0.00 | 0.00 | 14 | 926.3 |
| 20260510180108 | 71 | 360 | 7.0 | 12.0 | 0.00 | 0.00 | 0.00 | 16 | 926.1 |
| 20260510175518 | 71 | 360 | 3.0 | 15.0 | 0.00 | 0.00 | 0.00 | 16 | 926.2 |
| 20260510175021 | 71 | 360 | 10.0 | 16.0 | 0.00 | 0.00 | 0.00 | 16 | 926.0 |
| 20260510174604 | 70 | 360 | 4.0 | 19.0 | 0.00 | 0.00 | 0.00 | 17 | 926.0 |
| 20260510174015 | 70 | 360 | 9.0 | 19.0 | 0.00 | 0.00 | 0.00 | 17 | 926.0 |
| 20260510173519 | 69 | 360 | 7.0 | 18.0 | 0.00 | 0.00 | 0.00 | 18 | 926.2 |
| 20260510173053 | 69 | 360 | 11.0 | 19.0 | 0.00 | 0.00 | 0.00 | 20 | 926.2 |
| 20260510172518 | 70 | 360 | 8.0 | 14.0 | 0.00 | 0.00 | 0.00 | 20 | 926.2 |
| 20260510172020 | 69 | 360 | 7.0 | 16.0 | 0.00 | 0.00 | 0.00 | 20 | 926.3 |
| 20260510171603 | 69 | 360 | 12.0 | 16.0 | 0.00 | 0.00 | 0.00 | 20 | 926.1 |
| 20260510171015 | 68 | 360 | 8.0 | 16.0 | 0.00 | 0.00 | 0.00 | 21 | 926.3 |
| 20260510170515 | 68 | 360 | 8.0 | 20.0 | 0.00 | 0.00 | 0.00 | 22 | 926.2 |
| 20260510170100 | 68 | 360 | 12.0 | 20.0 | 0.00 | 0.00 | 0.00 | 21 | 926.6 |
| 20260510165519 | 67 | 360 | 11.0 | 14.0 | 0.00 | 0.00 | 0.00 | 23 | 926.7 |
| 20260510165015 | 67 | 360 | 9.0 | 19.0 | 0.00 | 0.00 | 0.00 | 23 | 926.5 |
| 20260510164603 | 68 | 360 | 14.0 | 19.0 | 0.00 | 0.00 | 0.00 | 22 | 926.4 |
| 20260510164018 | 67 | 360 | 10.0 | 17.0 | 0.00 | 0.00 | 0.00 | 23 | 926.3 |
| 20260510163518 | 67 | 360 | 13.0 | 17.0 | 0.00 | 0.00 | 0.00 | 22 | 926.5 |
| 20260510163109 | 67 | 360 | 13.0 | 16.0 | 0.00 | 0.00 | 0.00 | 23 | 926.6 |
| 20260510162520 | 67 | 360 | 11.0 | 15.0 | 0.00 | 0.00 | 0.00 | 22 | 926.7 |
| 20260510162020 | 67 | 360 | 11.0 | 15.0 | 0.00 | 0.00 | 0.00 | 23 | 926.9 |
| 20260510161602 | 66 | 360 | 10.0 | 18.0 | 0.00 | 0.00 | 0.00 | 23 | 926.8 |
| 20260510161020 | 66 | 360 | 11.0 | 18.0 | 0.00 | 0.00 | 0.00 | 21 | 926.8 |
| 20260510160518 | 66 | 360 | 9.0 | 15.0 | 0.00 | 0.00 | 0.00 | 21 | 926.9 |
| 20260510155520 | 66 | 360 | 12.0 | 16.0 | 0.00 | 0.00 | 0.00 | 22 | 926.9 |
| 20260510155019 | 66 | 360 | 9.0 | 15.0 | 0.00 | 0.00 | 0.00 | 22 | 926.8 |
| 20260510154609 | 65 | 360 | 9.0 | 13.0 | 0.00 | 0.00 | 0.00 | 23 | 927.0 |
| 20260510154021 | 65 | 360 | 7.0 | 11.0 | 0.00 | 0.00 | 0.00 | 24 | 927.0 |
| 20260510153518 | 64 | 360 | 6.0 | 11.0 | 0.00 | 0.00 | 0.00 | 26 | 927.0 |
| 20260510153055 | 63 | 360 | 7.0 | 11.0 | 0.00 | 0.00 | 0.00 | 26 | 927.2 |
| 20260510152521 | 63 | 360 | 7.0 | 11.0 | 0.00 | 0.00 | 0.00 | 28 | 927.2 |
| 20260510152018 | 61 | 360 | 4.0 | 8.0 | 0.00 | 0.00 | 0.00 | 29 | 927.1 |
| 20260510151603 | 60 | 360 | 3.0 | 11.0 | 0.00 | 0.00 | 0.00 | 31 | 927.0 |
| 20260510151018 | 60 | 360 | 8.0 | 11.0 | 0.00 | 0.00 | 0.00 | 31 | 927.2 |
| 20260510150521 | 60 | 360 | 7.0 | 12.0 | 0.00 | 0.00 | 0.00 | 32 | 927.2 |
| 20260510150110 | 59 | 360 | 5.0 | 12.0 | 0.00 | 0.00 | 0.00 | 33 | 927.2 |
| 20260510145522 | 58 | 360 | 9.0 | 12.0 | 0.00 | 0.00 | 0.00 | 33 | 927.3 |
| 20260510145019 | 58 | 360 | 9.0 | 11.0 | 0.00 | 0.00 | 0.00 | 35 | 927.1 |
| 20260510144607 | 57 | 360 | 9.0 | 11.0 | 0.00 | 0.00 | 0.00 | 36 | 926.9 |
| 20260510144022 | 56 | 360 | 4.0 | 10.0 | 0.00 | 0.00 | 0.00 | 39 | 927.3 |
| 20260510143515 | 55 | 360 | 2.0 | 5.0 | 0.00 | 0.00 | 0.00 | 42 | 927.3 |
| 20260510143109 | 54 | 360 | 0.0 | 4.0 | 0.00 | 0.00 | 0.00 | 43 | 927.6 |
| 20260510142519 | 53 | 360 | 1.0 | 4.0 | 0.00 | 0.00 | 0.00 | 44 | 927.5 |
| 20260510142017 | 52 | 360 | 0.0 | 3.0 | 0.00 | 0.00 | 0.00 | 46 | 927.4 |
| 20260510141602 | 51 | 360 | 1.0 | 3.0 | 0.00 | 0.00 | 0.00 | 46 | 927.7 |
| 20260510141021 | 50 | 360 | 0.0 | 3.0 | 0.00 | 0.00 | 0.00 | 48 | 927.7 |
| 20260510140520 | 50 | 360 | 0.0 | 3.0 | 0.00 | 0.00 | 0.00 | 49 | 927.7 |
| 20260510140109 | 49 | 360 | 1.0 | 3.0 | 0.00 | 0.00 | 0.00 | 49 | 927.6 |
| 20260510135520 | 48 | 360 | 1.0 | 3.0 | 0.00 | 0.00 | 0.00 | 50 | 927.7 |
| 20260510135021 | 48 | 360 | 1.0 | 3.0 | 0.00 | 0.00 | 0.00 | 52 | 927.8 |
| 20260510134555 | 47 | 360 | 1.0 | 3.0 | 0.00 | 0.00 | 0.00 | 52 | 927.8 |
| 20260510134020 | 47 | 360 | 1.0 | 3.0 | 0.00 | 0.00 | 0.00 | 52 | 927.8 |
| 20260510133519 | 47 | 360 | 0.0 | 2.0 | 0.00 | 0.00 | 0.00 | 53 | 927.7 |
| 20260510133105 | 46 | 360 | 0.0 | 2.0 | 0.00 | 0.00 | 0.00 | 53 | 927.7 |
| 20260510132524 | 45 | 360 | 0.0 | 2.0 | 0.00 | 0.00 | 0.00 | 54 | 927.7 |
| 20260510132021 | 45 | 360 | 1.0 | 2.0 | 0.00 | 0.00 | 0.00 | 54 | 927.6 |
| 20260510131555 | 44 | 360 | 0.0 | 0.0 | 0.00 | 0.00 | 0.00 | 56 | 927.7 |
| 20260510131029 | 43 | 360 | 0.0 | 3.0 | 0.00 | 0.00 | 0.00 | 56 | 927.7 |
| 20260510130514 | 43 | 360 | 1.0 | 3.0 | 0.00 | 0.00 | 0.00 | 55 | 927.4 |
| 20260510130035 | 43 | 360 | 0.0 | 0.0 | 0.00 | 0.00 | 0.00 | 55 | 927.6 |
| 20260510125510 | 43 | 360 | 0.0 | 2.0 | 0.00 | 0.00 | 0.00 | 54 | 927.8 |
| 20260510125012 | 43 | 360 | 0.0 | 2.0 | 0.00 | 0.00 | 0.00 | 55 | 927.8 |
| 20260510124539 | 43 | 360 | 1.0 | 2.0 | 0.00 | 0.00 | 0.00 | 55 | 927.9 |
| 20260510124014 | 43 | 360 | 0.0 | 3.0 | 0.00 | 0.00 | 0.00 | 56 | 927.8 |
| 20260510123514 | 43 | 360 | 1.0 | 3.0 | 0.00 | 0.00 | 0.00 | 57 | 927.7 |
| 20260510123035 | 42 | 360 | 1.0 | 3.0 | 0.00 | 0.00 | 0.00 | 55 | 927.9 |
| 20260510122517 | 42 | 360 | 1.0 | 3.0 | 0.00 | 0.00 | 0.00 | 56 | 927.8 |
| 20260510122012 | 42 | 360 | 1.0 | 3.0 | 0.00 | 0.00 | 0.00 | 56 | 927.9 |
| 20260510121540 | 42 | 360 | 1.0 | 3.0 | 0.00 | 0.00 | 0.00 | 56 | 928.0 |
| 20260510121017 | 42 | 360 | 0.0 | 4.0 | 0.00 | 0.00 | 0.00 | 56 | 928.0 |
| 20260510120512 | 42 | 360 | 2.0 | 5.0 | 0.00 | 0.00 | 0.00 | 56 | 928.0 |
| 20260510120038 | 42 | 360 | 4.0 | 5.0 | 0.00 | 0.00 | 0.00 | 55 | 927.9 |
| 20260510115510 | 42 | 360 | 2.0 | 3.0 | 0.00 | 0.00 | 0.00 | 55 | 928.0 |
| 20260510115014 | 42 | 360 | 1.0 | 5.0 | 0.00 | 0.00 | 0.00 | 54 | 928.0 |
| 20260510114541 | 43 | 360 | 2.0 | 5.0 | 0.00 | 0.00 | 0.00 | 51 | 928.1 |
| 20260510114014 | 44 | 360 | 4.0 | 5.0 | 0.00 | 0.00 | 0.00 | 53 | 928.0 |
| 20260510113513 | 44 | 360 | 4.0 | 5.0 | 0.00 | 0.00 | 0.00 | 53 | 928.0 |
| 20260510113035 | 44 | 360 | 3.0 | 4.0 | 0.00 | 0.00 | 0.00 | 53 | 927.9 |
| 20260510112515 | 45 | 360 | 1.0 | 6.0 | 0.00 | 0.00 | 0.00 | 47 | 928.1 |
| 20260510112011 | 47 | 360 | 3.0 | 6.0 | 0.00 | 0.00 | 0.00 | 50 | 928.0 |
| 20260510111534 | 46 | 360 | 4.0 | 5.0 | 0.00 | 0.00 | 0.00 | 51 | 928.1 |
| 20260510111013 | 45 | 360 | 4.0 | 5.0 | 0.00 | 0.00 | 0.00 | 52 | 927.9 |
| 20260510110511 | 45 | 360 | 4.0 | 5.0 | 0.00 | 0.00 | 0.00 | 52 | 928.2 |
| 20260510110035 | 44 | 360 | 2.0 | 3.0 | 0.00 | 0.00 | 0.00 | 52 | 928.1 |
| 20260510105514 | 45 | 360 | 2.0 | 5.0 | 0.00 | 0.00 | 0.00 | 51 | 928.4 |
| 20260510105018 | 45 | 360 | 3.0 | 5.0 | 0.00 | 0.00 | 0.00 | 53 | 928.3 |
| 20260510104537 | 44 | 360 | 4.0 | 5.0 | 0.00 | 0.00 | 0.00 | 53 | 928.2 |
| 20260510104014 | 43 | 360 | 3.0 | 5.0 | 0.00 | 0.00 | 0.00 | 54 | 928.3 |
| 20260510103513 | 43 | 360 | 2.0 | 5.0 | 0.00 | 0.00 | 0.00 | 54 | 928.5 |
| 20260510103039 | 43 | 360 | 3.0 | 5.0 | 0.00 | 0.00 | 0.00 | 55 | 928.4 |
| 20260510102512 | 43 | 360 | 2.0 | 5.0 | 0.00 | 0.00 | 0.00 | 54 | 928.4 |
| 20260510102018 | 43 | 360 | 3.0 | 5.0 | 0.00 | 0.00 | 0.00 | 54 | 928.5 |
| 20260510101534 | 43 | 360 | 4.0 | 5.0 | 0.00 | 0.00 | 0.00 | 55 | 928.6 |
| 20260510101017 | 43 | 360 | 4.0 | 6.0 | 0.00 | 0.00 | 0.00 | 55 | 928.5 |
| 20260510100514 | 42 | 360 | 4.0 | 5.0 | 0.00 | 0.00 | 0.00 | 56 | 928.6 |
| 20260510100033 | 42 | 360 | 3.0 | 4.0 | 0.00 | 0.00 | 0.00 | 54 | 928.6 |
| 20260510095513 | 43 | 360 | 1.0 | 5.0 | 0.00 | 0.00 | 0.00 | 53 | 928.4 |
| 20260510095016 | 43 | 360 | 3.0 | 6.0 | 0.00 | 0.00 | 0.00 | 52 | 928.4 |
| 20260510094539 | 44 | 360 | 5.0 | 6.0 | 0.00 | 0.00 | 0.00 | 52 | 928.5 |
| 20260510094011 | 44 | 360 | 5.0 | 6.0 | 0.00 | 0.00 | 0.00 | 52 | 928.5 |
| 20260510093512 | 45 | 360 | 3.0 | 6.0 | 0.00 | 0.00 | 0.00 | 52 | 928.7 |
| 20260510093038 | 45 | 360 | 4.0 | 6.0 | 0.00 | 0.00 | 0.00 | 51 | 928.6 |
| 20260510092512 | 45 | 360 | 5.0 | 6.0 | 0.00 | 0.00 | 0.00 | 52 | 928.7 |
| 20260510092013 | 45 | 360 | 5.0 | 6.0 | 0.00 | 0.00 | 0.00 | 51 | 928.7 |
| 20260510091534 | 46 | 360 | 4.0 | 6.0 | 0.00 | 0.00 | 0.00 | 49 | 928.6 |
| 20260510091017 | 46 | 360 | 5.0 | 8.0 | 0.00 | 0.00 | 0.00 | 47 | 928.7 |
| 20260510090514 | 48 | 360 | 5.0 | 8.0 | 0.00 | 0.00 | 0.00 | 47 | 928.7 |
| 20260510090040 | 48 | 360 | 6.0 | 8.0 | 0.00 | 0.00 | 0.00 | 49 | 928.8 |
| 20260510085513 | 47 | 360 | 6.0 | 8.0 | 0.00 | 0.00 | 0.00 | 49 | 928.8 |
| 20260510085013 | 47 | 360 | 6.0 | 8.0 | 0.00 | 0.00 | 0.00 | 48 | 928.8 |
| 20260510084541 | 47 | 360 | 6.0 | 8.0 | 0.00 | 0.00 | 0.00 | 49 | 928.8 |
| 20260510084011 | 46 | 360 | 6.0 | 8.0 | 0.00 | 0.00 | 0.00 | 50 | 928.9 |
| 20260510083516 | 45 | 360 | 5.0 | 6.0 | 0.00 | 0.00 | 0.00 | 49 | 929.0 |
| 20260510083036 | 46 | 360 | 4.0 | 5.0 | 0.00 | 0.00 | 0.00 | 49 | 928.8 |
| 20260510082511 | 46 | 360 | 3.0 | 4.0 | 0.00 | 0.00 | 0.00 | 48 | 928.9 |
| 20260510082015 | 47 | 360 | 3.0 | 4.0 | 0.00 | 0.00 | 0.00 | 48 | 928.9 |
| 20260510081535 | 47 | 360 | 3.0 | 5.0 | 0.00 | 0.00 | 0.00 | 47 | 928.8 |
| 20260510081012 | 47 | 360 | 3.0 | 5.0 | 0.00 | 0.00 | 0.00 | 47 | 928.8 |
| 20260510080514 | 48 | 360 | 4.0 | 5.0 | 0.00 | 0.00 | 0.00 | 47 | 928.9 |
| 20260510080043 | 48 | 360 | 4.0 | 6.0 | 0.00 | 0.00 | 0.00 | 46 | 928.9 |
| 20260510075513 | 49 | 360 | 5.0 | 8.0 | 0.00 | 0.00 | 0.00 | 45 | 929.1 |
| 20260510075014 | 49 | 360 | 5.0 | 8.0 | 0.00 | 0.00 | 0.00 | 46 | 929.0 |
| 20260510074547 | 49 | 360 | 5.0 | 9.0 | 0.00 | 0.00 | 0.00 | 46 | 929.2 |
| 20260510074013 | 49 | 360 | 7.0 | 10.0 | 0.00 | 0.00 | 0.00 | 46 | 929.2 |
| 20260510073512 | 49 | 360 | 8.0 | 10.0 | 0.00 | 0.00 | 0.00 | 45 | 929.2 |
| 20260510073047 | 50 | 360 | 8.0 | 10.0 | 0.00 | 0.00 | 0.00 | 45 | 929.1 |
| 20260510072511 | 49 | 360 | 7.0 | 9.0 | 0.00 | 0.00 | 0.00 | 46 | 929.1 |
| 20260510072017 | 49 | 360 | 6.0 | 8.0 | 0.00 | 0.00 | 0.00 | 45 | 929.1 |
| 20260510071537 | 50 | 360 | 3.0 | 12.0 | 0.00 | 0.00 | 0.00 | 44 | 929.0 |
| 20260510071012 | 50 | 360 | 4.0 | 12.0 | 0.00 | 0.00 | 0.00 | 45 | 928.9 |
| 20260510070516 | 51 | 360 | 6.0 | 10.0 | 0.00 | 0.00 | 0.00 | 44 | 929.0 |
| 20260510070033 | 51 | 360 | 8.0 | 9.0 | 0.00 | 0.00 | 0.00 | 43 | 929.0 |
| 20260510065511 | 51 | 360 | 8.0 | 9.0 | 0.00 | 0.00 | 0.00 | 44 | 929.0 |
| 20260510065014 | 50 | 360 | 7.0 | 9.0 | 0.00 | 0.00 | 0.00 | 45 | 928.7 |
| 20260510064559 | 50 | 360 | 6.0 | 8.0 | 0.00 | 0.00 | 0.00 | 45 | 928.9 |
| 20260510064012 | 50 | 360 | 5.0 | 8.0 | 0.00 | 0.00 | 0.00 | 44 | 928.8 |
| 20260510063514 | 50 | 360 | 6.0 | 8.0 | 0.00 | 0.00 | 0.00 | 45 | 928.9 |
| 20260510063038 | 49 | 360 | 4.0 | 9.0 | 0.00 | 0.00 | 0.00 | 44 | 928.9 |
| 20260510062514 | 49 | 360 | 7.0 | 9.0 | 0.00 | 0.00 | 0.00 | 44 | 928.9 |
| 20260510062014 | 50 | 360 | 4.0 | 9.0 | 0.00 | 0.00 | 0.00 | 42 | 928.9 |
| 20260510061539 | 50 | 360 | 7.0 | 9.0 | 0.00 | 0.00 | 0.00 | 43 | 928.9 |
| 20260510061014 | 50 | 360 | 7.0 | 9.0 | 0.00 | 0.00 | 0.00 | 42 | 928.9 |
| 20260510060511 | 51 | 360 | 6.0 | 9.0 | 0.00 | 0.00 | 0.00 | 41 | 928.9 |
| 20260510060037 | 52 | 360 | 8.0 | 9.0 | 0.00 | 0.00 | 0.00 | 40 | 928.9 |
| 20260510055515 | 52 | 360 | 8.0 | 9.0 | 0.00 | 0.00 | 0.00 | 41 | 928.8 |
| 20260510055012 | 51 | 360 | 8.0 | 9.0 | 0.00 | 0.00 | 0.00 | 42 | 928.9 |
| 20260510054541 | 51 | 360 | 7.0 | 8.0 | 0.00 | 0.00 | 0.00 | 40 | 928.8 |
| 20260510054013 | 52 | 360 | 7.0 | 8.0 | 0.00 | 0.00 | 0.00 | 38 | 928.9 |
| 20260510053518 | 53 | 360 | 5.0 | 8.0 | 0.00 | 0.00 | 0.00 | 39 | 928.9 |
| 20260510053045 | 53 | 360 | 5.0 | 9.0 | 0.00 | 0.00 | 0.00 | 39 | 928.8 |
| 20260510052513 | 52 | 360 | 6.0 | 9.0 | 0.00 | 0.00 | 0.00 | 40 | 928.8 |
| 20260510052015 | 52 | 360 | 6.0 | 8.0 | 0.00 | 0.00 | 0.00 | 39 | 928.8 |
| 20260510051547 | 52 | 360 | 5.0 | 6.0 | 0.00 | 0.00 | 0.00 | 39 | 928.8 |
| 20260510051019 | 52 | 360 | 5.0 | 6.0 | 0.00 | 0.00 | 0.00 | 38 | 928.8 |
| 20260510050511 | 53 | 360 | 4.0 | 8.0 | 0.00 | 0.00 | 0.00 | 37 | 929.0 |
| 20260510050042 | 53 | 360 | 6.0 | 8.0 | 0.00 | 0.00 | 0.00 | 37 | 929.0 |
| 20260510045512 | 53 | 360 | 5.0 | 8.0 | 0.00 | 0.00 | 0.00 | 37 | 929.0 |
| 20260510045012 | 53 | 360 | 5.0 | 6.0 | 0.00 | 0.00 | 0.00 | 37 | 928.9 |
| 20260510044540 | 54 | 360 | 5.0 | 6.0 | 0.00 | 0.00 | 0.00 | 35 | 929.0 |
| 20260510044011 | 55 | 360 | 4.0 | 8.0 | 0.00 | 0.00 | 0.00 | 35 | 928.9 |
| 20260510043511 | 55 | 360 | 5.0 | 8.0 | 0.00 | 0.00 | 0.00 | 35 | 929.0 |
| 20260510043035 | 55 | 360 | 5.0 | 6.0 | 0.00 | 0.00 | 0.00 | 35 | 928.9 |
| 20260510042515 | 55 | 360 | 4.0 | 5.0 | 0.00 | 0.00 | 0.00 | 34 | 929.0 |
| 20260510042014 | 56 | 360 | 4.0 | 5.0 | 0.00 | 0.00 | 0.00 | 34 | 928.9 |
| 20260510041543 | 56 | 360 | 3.0 | 5.0 | 0.00 | 0.00 | 0.00 | 34 | 928.9 |
| 20260510041017 | 56 | 360 | 3.0 | 5.0 | 0.00 | 0.00 | 0.00 | 34 | 929.0 |
| 20260510040515 | 56 | 360 | 3.0 | 5.0 | 0.00 | 0.00 | 0.00 | 34 | 928.9 |
| 20260510040047 | 55 | 360 | 4.0 | 5.0 | 0.00 | 0.00 | 0.00 | 34 | 928.7 |
| 20260510035515 | 56 | 360 | 0.0 | 3.0 | 0.00 | 0.00 | 0.00 | 34 | 928.8 |
| 20260510035017 | 55 | 360 | 0.0 | 3.0 | 0.00 | 0.00 | 0.00 | 36 | 928.7 |
| 20260510034601 | 54 | 360 | 0.0 | 2.0 | 0.00 | 0.00 | 0.00 | 36 | 928.8 |
| 20260510034014 | 54 | 360 | 1.0 | 3.0 | 0.00 | 0.00 | 0.00 | 35 | 928.6 |
| 20260510033513 | 54 | 360 | 1.0 | 3.0 | 0.00 | 0.00 | 0.00 | 35 | 928.6 |
| 20260510033042 | 54 | 360 | 1.0 | 2.0 | 0.00 | 0.00 | 0.00 | 34 | 928.4 |
| 20260510032511 | 54 | 360 | 1.0 | 2.0 | 0.00 | 0.00 | 0.00 | 34 | 928.5 |
| 20260510032017 | 54 | 360 | 1.0 | 2.0 | 0.00 | 0.00 | 0.00 | 33 | 928.3 |
| 20260510031539 | 55 | 360 | 0.0 | 2.0 | 0.00 | 0.00 | 0.00 | 33 | 928.3 |
| 20260510031012 | 55 | 360 | 1.0 | 2.0 | 0.00 | 0.00 | 0.00 | 31 | 928.2 |
| 20260510030518 | 56 | 360 | 0.0 | 2.0 | 0.00 | 0.00 | 0.00 | 30 | 928.3 |
| 20260510030038 | 57 | 360 | 0.0 | 4.0 | 0.00 | 0.00 | 0.00 | 29 | 928.2 |
| 20260510025517 | 59 | 360 | 1.0 | 4.0 | 0.00 | 0.00 | 0.00 | 27 | 928.3 |
| 20260510025018 | 61 | 360 | 3.0 | 4.0 | 0.00 | 0.00 | 0.00 | 27 | 928.2 |
| 20260510024539 | 62 | 360 | 3.0 | 4.0 | 0.00 | 0.00 | 0.00 | 28 | 928.1 |
| 20260510024013 | 62 | 360 | 1.0 | 3.0 | 0.00 | 0.00 | 0.00 | 27 | 928.0 |
| 20260510023515 | 63 | 360 | 1.0 | 3.0 | 0.00 | 0.00 | 0.00 | 27 | 927.9 |
| 20260510023033 | 63 | 360 | 1.0 | 4.0 | 0.00 | 0.00 | 0.00 | 27 | 927.9 |
| 20260510022514 | 63 | 360 | 2.0 | 4.0 | 0.00 | 0.00 | 0.00 | 26 | 928.1 |
| 20260510022014 | 64 | 360 | 2.0 | 5.0 | 0.00 | 0.00 | 0.00 | 26 | 928.2 |
| 20260510021539 | 64 | 360 | 4.0 | 6.0 | 0.00 | 0.00 | 0.00 | 25 | 928.0 |
| 20260510021012 | 65 | 360 | 4.0 | 6.0 | 0.00 | 0.00 | 0.00 | 25 | 928.1 |
| 20260510020512 | 65 | 360 | 4.0 | 6.0 | 0.00 | 0.00 | 0.00 | 25 | 928.0 |
| 20260510020046 | 65 | 360 | 5.0 | 9.0 | 0.00 | 0.00 | 0.00 | 25 | 928.1 |
| 20260510015513 | 65 | 360 | 5.0 | 10.0 | 0.00 | 0.00 | 0.00 | 25 | 928.0 |
| 20260510015012 | 66 | 360 | 8.0 | 10.0 | 0.00 | 0.00 | 0.00 | 25 | 928.2 |
| 20260510014543 | 65 | 360 | 8.0 | 12.0 | 0.00 | 0.00 | 0.00 | 25 | 928.1 |
| 20260510014012 | 66 | 360 | 9.0 | 12.0 | 0.00 | 0.00 | 0.00 | 25 | 928.1 |
| 20260510013514 | 66 | 360 | 10.0 | 12.0 | 0.00 | 0.00 | 0.00 | 24 | 928.0 |
| 20260510013046 | 66 | 360 | 10.0 | 12.0 | 0.00 | 0.00 | 0.00 | 24 | 927.8 |
| 20260510012515 | 66 | 360 | 9.0 | 13.0 | 0.00 | 0.00 | 0.00 | 25 | 928.0 |
| 20260510012013 | 66 | 360 | 9.0 | 15.0 | 0.00 | 0.00 | 0.00 | 24 | 927.9 |
| 20260510011535 | 66 | 360 | 9.0 | 15.0 | 0.00 | 0.00 | 0.00 | 24 | 927.7 |
| 20260510011014 | 67 | 360 | 9.0 | 14.0 | 0.00 | 0.00 | 0.00 | 23 | 927.9 |
| 20260510010516 | 67 | 360 | 11.0 | 16.0 | 0.00 | 0.00 | 0.00 | 24 | 927.8 |
| 20260510010047 | 67 | 360 | 11.0 | 16.0 | 0.00 | 0.00 | 0.00 | 24 | 927.9 |
| 20260510005516 | 67 | 360 | 10.0 | 18.0 | 0.00 | 0.00 | 0.00 | 24 | 927.8 |
| 20260510005015 | 67 | 360 | 11.0 | 17.0 | 0.00 | 0.00 | 0.00 | 23 | 927.9 |
| 20260510004536 | 67 | 360 | 9.0 | 15.0 | 0.00 | 0.00 | 0.00 | 23 | 927.9 |
| 20260510004015 | 67 | 360 | 10.0 | 16.0 | 0.00 | 0.00 | 0.00 | 23 | 927.9 |
| 20260510003514 | 67 | 360 | 12.0 | 16.0 | 0.00 | 0.00 | 0.00 | 23 | 927.9 |
| 20260510003046 | 66 | 360 | 7.0 | 13.0 | 0.00 | 0.00 | 0.00 | 24 | 928.0 |
| 20260510002513 | 66 | 360 | 9.0 | 13.0 | 0.00 | 0.00 | 0.00 | 24 | 928.0 |
| 20260510002012 | 66 | 360 | 8.0 | 12.0 | 0.00 | 0.00 | 0.00 | 24 | 928.0 |
| 20260510001539 | 67 | 360 | 7.0 | 12.0 | 0.00 | 0.00 | 0.00 | 24 | 927.9 |
| 20260510001012 | 67 | 360 | 3.0 | 13.0 | 0.00 | 0.00 | 0.00 | 24 | 928.1 |
| 20260510000513 | 67 | 360 | 9.0 | 17.0 | 0.00 | 0.00 | 0.00 | 24 | 928.0 |
| 20260510000040 | 67 | 360 | 9.0 | 13.0 | 0.00 | 0.00 | 0.00 | 24 | 928.1 |
| 20260509235514 | 66 | 360 | 3.0 | 15.0 | 0.00 | 0.00 | 0.00 | 24 | 927.9 |
| 20260509235015 | 66 | 360 | 1.0 | 9.0 | 0.00 | 0.00 | 0.00 | 25 | 928.0 |
| 20260509234538 | 67 | 360 | 4.0 | 12.0 | 0.00 | 0.00 | 0.00 | 24 | 928.2 |
| 20260509234014 | 67 | 360 | 7.0 | 14.0 | 0.00 | 0.00 | 0.00 | 24 | 928.0 |
| 20260509233514 | 67 | 360 | 9.0 | 16.0 | 0.00 | 0.00 | 0.00 | 23 | 928.2 |
| 20260509233043 | 67 | 360 | 10.0 | 16.0 | 0.00 | 0.00 | 0.00 | 24 | 928.0 |
| 20260509232515 | 66 | 360 | 7.0 | 14.0 | 0.00 | 0.00 | 0.00 | 25 | 928.1 |
| 20260509232013 | 66 | 360 | 5.0 | 11.0 | 0.00 | 0.00 | 0.00 | 25 | 928.0 |
| 20260509231542 | 66 | 360 | 3.0 | 13.0 | 0.00 | 0.00 | 0.00 | 25 | 928.1 |
| 20260509231014 | 66 | 360 | 5.0 | 13.0 | 0.00 | 0.00 | 0.00 | 25 | 928.0 |
| 20260509230514 | 66 | 360 | 7.0 | 11.0 | 0.00 | 0.00 | 0.00 | 24 | 928.1 |
| 20260509230057 | 66 | 360 | 7.0 | 16.0 | 0.00 | 0.00 | 0.00 | 25 | 928.1 |
| 20260509225515 | 66 | 360 | 10.0 | 16.0 | 0.00 | 0.00 | 0.00 | 24 | 928.0 |
| 20260509225014 | 66 | 360 | 6.0 | 15.0 | 0.00 | 0.00 | 0.00 | 25 | 928.0 |
| 20260509224540 | 66 | 360 | 10.0 | 15.0 | 0.00 | 0.00 | 0.00 | 25 | 928.0 |
| 20260509224015 | 65 | 360 | 5.0 | 14.0 | 0.00 | 0.00 | 0.00 | 26 | 928.0 |
| 20260509223516 | 65 | 360 | 8.0 | 15.0 | 0.00 | 0.00 | 0.00 | 26 | 928.0 |
| 20260509223038 | 65 | 360 | 8.0 | 16.0 | 0.00 | 0.00 | 0.00 | 26 | 928.0 |
| 20260509222517 | 66 | 360 | 13.0 | 17.0 | 0.00 | 0.00 | 0.00 | 25 | 928.0 |
| 20260509222015 | 66 | 360 | 14.0 | 18.0 | 0.00 | 0.00 | 0.00 | 25 | 928.0 |
| 20260509221538 | 66 | 360 | 13.0 | 18.0 | 0.00 | 0.00 | 0.00 | 25 | 928.2 |
| 20260509221012 | 66 | 360 | 10.0 | 13.0 | 0.00 | 0.00 | 0.00 | 25 | 928.2 |
| 20260509220515 | 66 | 360 | 3.0 | 11.0 | 0.00 | 0.00 | 0.00 | 25 | 928.2 |
| 20260509220042 | 66 | 360 | 2.0 | 15.0 | 0.00 | 0.00 | 0.00 | 25 | 928.3 |
| 20260509215518 | 66 | 360 | 10.0 | 15.0 | 0.00 | 0.00 | 0.00 | 24 | 928.5 |
| 20260509215014 | 66 | 360 | 4.0 | 14.0 | 0.00 | 0.00 | 0.00 | 24 | 928.2 |
| 20260509214558 | 67 | 360 | 9.0 | 14.0 | 0.00 | 0.00 | 0.00 | 24 | 928.3 |
| 20260509214018 | 67 | 360 | 9.0 | 14.0 | 0.00 | 0.00 | 0.00 | 24 | 928.4 |
| 20260509213513 | 66 | 360 | 9.0 | 14.0 | 0.00 | 0.00 | 0.00 | 24 | 928.3 |
| 20260509213033 | 66 | 360 | 4.0 | 11.0 | 0.00 | 0.00 | 0.00 | 25 | 928.3 |
| 20260509212516 | 65 | 360 | 5.0 | 11.0 | 0.00 | 0.00 | 0.00 | 26 | 928.3 |
| 20260509212014 | 65 | 360 | 4.0 | 16.0 | 0.00 | 0.00 | 0.00 | 27 | 928.2 |
| 20260509211539 | 65 | 360 | 6.0 | 16.0 | 0.00 | 0.00 | 0.00 | 26 | 928.3 |
| 20260509211013 | 65 | 360 | 5.0 | 11.0 | 0.00 | 0.00 | 0.00 | 27 | 928.4 |
| 20260509210515 | 65 | 360 | 4.0 | 14.0 | 0.00 | 0.00 | 0.00 | 27 | 928.3 |
| 20260509210048 | 64 | 360 | 6.0 | 17.0 | 0.00 | 0.00 | 0.00 | 27 | 928.2 |
| 20260509205513 | 64 | 360 | 8.0 | 17.0 | 0.00 | 0.00 | 0.00 | 28 | 928.3 |
| 20260509205013 | 64 | 360 | 9.0 | 14.0 | 0.00 | 0.00 | 0.00 | 27 | 928.3 |
| 20260509204537 | 64 | 360 | 6.0 | 11.0 | 0.00 | 0.00 | 0.00 | 28 | 928.4 |